カタログに戻る

FENGYUN 1C DEB

LostPO
NORAD 31960·DEBRIS·🇨🇳 China

打ち上げ May 10, 1999 から Taiyuan Satellite Launch Center

Loading…

次のパス (今後24時間)

TLE

古いSource: Space-Track

元期: Oct 18, 2021, 15:27 UTC

1 31960U 99025CNM 21291.64411027  .00000474  00000-0  34527-3 0  9993
2 31960  99.6903 232.9756 0148334 260.2517  98.1864 13.96575990726282

AllMySatでFENGYUN 1C DEBをリアルタイム追跡

Download on the App Store